Weather History for CYAH - June, 2013

Change the Weather History Date:

Tuesday, June 11, 2013

  Actual Average Record
Temperature  
Mean Temperature 58 °F -  
Max Temperature 76 °F 60 °F 89 °F (2012)
Min Temperature 40 °F 39 °F 28 °F (2002)
Degree Days  
Heating Degree Days 7    
Growing Degree Days 8 (Base 50)    
Moisture  
Dew Point 38 °F    
Average Humidity 46    
Maximum Humidity 93    
Minimum Humidity 13    
Precipitation  
Precipitation 0.00 in - - ()
Sea Level Pressure  
Sea Level Pressure 29.95 in    
Wind  
Wind Speed 4 mph ()    
Max Wind Speed 12 mph    
Max Gust Speed 18 mph    
Visibility 11.1 miles    
Events      
Averages and records for this station are not official NWS values.
T = Trace of Precipitation, MM = Missing Value Source: Averaged Metar Reports

Daily Weather History Graph

Daily Weather History Graph

Search for Another Location

Airport or City:

Trip Planner

Search our weather history database for the weather conditions in past years. The results will help you decide how hot, cold, wet, or windy it might be!

Date:

Astronomy

Jun. 11, 2013 Rise Set
Actual Time 4:24 AM EDT 9:24 PM EDT
Civil Twilight 3:31 AM EDT 10:17 PM EDT
Nautical Twilight 1:56 AM EDT 11:54 PM EDT
Astronomical Twilight Sun does not rise Sun does not rise
Moon 7:25 AM EDT (6/11) 11:00 PM EDT (6/11)
Length of Visible Light 18h 46m
Length of Day
17h 00m
Waxing Crescent, 8% of the Moon is Illuminated
Jun 11
Waxing Crescent
Jun 16
First Quarter
Jun 23
Full
Jun 30
Last Quarter
Jul 8
New

Hourly Weather History & Observations

Time (EDT) Temp. Windchill Dew Point Humidity Pressure Visibility Wind Dir Wind Speed Gust Speed Precip Events Conditions
12:00 AM 57.2 °F - 42.8 °F 59% 30.01 in 9.0 mi Variable 2.3 mph - N/A   Clear
1:00 AM 48.2 °F - 42.8 °F 82% 30.02 in 9.0 mi Calm Calm - N/A   Clear
2:00 AM 46 °F - 42 °F 80% 30.02 in 10 mi East 2.3 mph - -  
2:00 AM 46.4 °F 45.2 °F 41.0 °F 81% 30.02 in 9.0 mi East 3.5 mph - N/A   Clear
3:00 AM 44.6 °F - 42.8 °F 93% 30.02 in 9.0 mi NE 2.3 mph - N/A   Clear
4:00 AM 42.8 °F - 41.0 °F 93% 30.01 in 9.0 mi Variable 2.3 mph - N/A   Clear
5:00 AM 41.0 °F - 39.2 °F 93% 30.01 in 9.0 mi Calm Calm - N/A   Clear
6:00 AM 44.6 °F 42.2 °F 42.8 °F 93% 30.01 in 9.0 mi ENE 4.6 mph - N/A   Clear
7:00 AM 53.6 °F - 46.4 °F 77% 30.01 in 9.0 mi NE 3.5 mph - N/A   Clear
8:00 AM 61 °F - 45 °F 44% 30.01 in 10 mi NE 4.6 mph - -  
8:00 AM 60.8 °F - 44.6 °F 55% 30.01 in 9.0 mi NE 4.6 mph - N/A   Clear
9:00 AM 68.0 °F - 42.8 °F 40% 29.99 in 15.0 mi ENE 6.9 mph - N/A   Clear
10:00 AM 69.8 °F - 37.4 °F 31% 29.99 in 15.0 mi ENE 6.9 mph - N/A   Clear
11:00 AM 71.6 °F - 37.4 °F 29% 29.97 in 15.0 mi ENE 8.1 mph - N/A   Partly Cloudy
12:00 PM 73.4 °F - 37.4 °F 27% 29.96 in 15.0 mi ENE 8.1 mph - N/A   Partly Cloudy
1:00 PM 73.4 °F - 35.6 °F 25% 29.94 in 15.0 mi ENE 8.1 mph - N/A   Partly Cloudy
2:00 PM 74 °F - 34 °F 13% 29.94 in 10 mi East 10.4 mph - -  
2:00 PM 73.4 °F - 35.6 °F 25% 29.93 in 15.0 mi East 6.9 mph - N/A   Partly Cloudy
3:00 PM 73.4 °F - 33.8 °F 23% 29.92 in 15.0 mi ENE 4.6 mph 18.4 mph N/A   Partly Cloudy
4:00 PM 75.2 °F - 32.0 °F 21% 29.90 in 15.0 mi NE 9.2 mph - N/A   Partly Cloudy
5:00 PM 75.2 °F - 32.0 °F 21% 29.89 in 15.0 mi East 5.8 mph - N/A   Scattered Clouds
6:00 PM 75.2 °F - 30.2 °F 19% 29.88 in 9.0 mi ENE 11.5 mph - N/A   Clear
7:00 PM 73.4 °F - 32.0 °F 22% 29.87 in 9.0 mi NE 9.2 mph - N/A   Clear
8:00 PM 71 °F - 34 °F 15% 29.88 in 10 mi ENE 9.2 mph - -  
8:00 PM 71.6 °F - 33.8 °F 25% 29.87 in 9.0 mi ENE 8.1 mph - N/A   Clear
9:00 PM 66.2 °F - 33.8 °F 30% 29.88 in 9.0 mi East 8.1 mph - N/A   Clear
10:00 PM 60.8 °F - 32.0 °F 34% 29.88 in 9.0 mi East 6.9 mph - N/A   Clear
11:00 PM 57.2 °F - 35.6 °F 44% 29.88 in 9.0 mi East 9.2 mph - N/A   Clear